Regional Weather Roundup
Issued by NWS

Home | Current Version | Previous Version | Graphics & Text | Print | Product List | Glossary On
Versions: 1 2 3 4 5 6 7 8 9 10 11 12 13 14 15 16 17 18 19 20 21 22 23 24 25 26 27 28 29 30 31 32 33 34 35 36 37 38 39 40 41 42 43 44 45 46 47 48 49 50
000
ASUS43 KBIS 030710
RWRND

NORTH DAKOTA REGIONAL WEATHER ROUNDUP
NATIONAL WEATHER SERVICE BISMARCK ND
200 AM CDT WED SEP 03 2014

NOTE: "FAIR" INDICATES FEW OR NO CLOUDS BELOW 12,000 FEET WITH NO
SIGNIFICANT WEATHER AND/OR OBSTRUCTIONS TO VISIBILITY.


NDZ001>003-009>011-017-030800-
NORTHWEST NORTH DAKOTA

CITY           SKY/WX    TMP DP  RH WIND       PRES   REMARKS
WILLISTON      PTCLDY    50  46  86 N3        29.71F
MINOT          PTCLDY    54  49  83 S3        29.73F
MINOT AFB      PTCLDY    51  49  93 S5        29.72F
$$

NDZ018>021-031>035-040>046-030800-
SOUTHWEST NORTH DAKOTA

CITY           SKY/WX    TMP DP  RH WIND       PRES   REMARKS
BISMARCK       PTCLDY    53  50  89 NE3       29.76F
DICKINSON      CLEAR     50  43  77 E3        29.73F
GARRISON         N/A     55  51  86 E5        29.74F
HETTINGER ARPT CLEAR     52  44  74 E5        29.76F
$$

NDZ004>008-012>016-024-026-027-054-030800-
NORTHEAST NORTH DAKOTA

CITY           SKY/WX    TMP DP  RH WIND       PRES   REMARKS
GRAND FORKS    CLEAR     54  51  90 NW3       29.73S
GRND FRKS AFB  CLEAR     52  52  99 NW5       29.74S
DEVILS LAKE    CLEAR     52  46  82 CALM      29.74S
$$

NDZ022-023-025-028>030-036>039-047>053-030800-
SOUTHEAST NORTH DAKOTA

CITY           SKY/WX    TMP DP  RH WIND       PRES   REMARKS
FARGO          CLEAR     63  55  75 S7        29.74S
JAMESTOWN      CLEAR     52  50  93 CALM      29.76S
$$



USA.gov is the U.S. government's official web portal to all federal, state and local government web resources and services.